Location: Unspecified
(0.0000°N, 0.0000°E)
Time: 22:40:15
(UTC+00:00)

deb S5M - Pass Details

Date: 21 June 2024
Orbit: 775 x 867 km, 82.5° (Epoch: 13 July)

Event Time Altitude Azimuth Distance (km) Brightness Sun altitude
Exits shadow 05:24:31 10° 250° (WSW) 2,388 ? -8.6°
Maximum altitude 05:26:44 13° 274° (W) 2,221 ? -8.1°
Drops below altitude 10° 05:29:04 10° 300° (WNW) 2,425 ? -7.5°
Sets 05:32:59 0° 327° (NNW) 3,378 ? -6.6°
